Location: Mentone
(34.5413°N, 85.5351°W)
Time: 00:23:07
(UTC-05:00)

Uosat F - Visible Passes

Search period start: 31 July 2014 00:00
Search period end: 10 August 2014 00:00
Orbit: 752 x 762 km, 98.7° (Epoch: 30 July)

Date Brightness Start Highest point End Pass type
(mag) Time Alt. Az. Time Alt. Az. Time Alt. Az.
31 Jul 12.4 04:27:15 10° NNE 04:31:54 37° E 04:36:31 10° SSE visible
01 Aug 13.7 03:49:49 10° ENE 03:52:33 15° E 03:55:16 10° SE visible
02 Aug 11.5 04:47:35 10° NNE 04:52:33 62° ESE 04:57:29 10° S visible
03 Aug 13.1 04:09:17 10° NE 04:13:19 24° E 04:17:18 10° SSE visible
04 Aug 11.0 05:08:07 10° N 05:13:09 81° WNW 05:18:08 10° SSW visible
05 Aug 12.4 04:29:20 10° NNE 04:34:01 39° E 04:38:39 10° SSE visible
06 Aug 13.7 03:51:48 10° ENE 03:54:40 15° E 03:57:31 10° SE visible
07 Aug 11.5 04:49:40 10° NNE 04:54:39 65° ESE 04:59:36 10° S visible
08 Aug 13.1 04:11:20 10° NE 04:15:25 25° E 04:19:28 10° SSE visible
09 Aug 11.0 05:10:14 10° N 05:15:14 78° WNW 05:20:13 10° SSW visible
